TimeCDT,TemperatureF,Dew PointF,Humidity,Sea Level PressureIn,VisibilityMPH,Wind Direction,Wind SpeedMPH,Gust SpeedMPH,PrecipitationIn,Events,Conditions,WindDirDegrees,DateUTC
12:53 AM,68.0,64.9,90,30.11,7.0,Calm,Calm,-,N/A,,Mostly Cloudy,0,2013-05-24 05:53:00
1:53 AM,66.9,64.9,93,30.12,10.0,East,5.8,-,N/A,,Scattered Clouds,80,2013-05-24 06:53:00
2:53 AM,66.9,63.0,87,30.12,10.0,ENE,9.2,-,N/A,,Clear,70,2013-05-24 07:53:00
3:53 AM,66.0,57.9,75,30.12,10.0,East,10.4,-,N/A,,Clear,80,2013-05-24 08:53:00
4:53 AM,64.9,57.0,75,30.16,10.0,East,9.2,-,N/A,,Clear,90,2013-05-24 09:53:00
5:53 AM,64.0,57.0,78,30.19,10.0,East,10.4,-,N/A,,Clear,80,2013-05-24 10:53:00
6:53 AM,64.0,55.9,75,30.21,10.0,East,11.5,-,N/A,,Clear,90,2013-05-24 11:53:00
7:53 AM,64.9,55.9,73,30.21,10.0,East,12.7,-,N/A,,Clear,80,2013-05-24 12:53:00
8:53 AM,66.9,55.9,68,30.23,10.0,East,15.0,21.9,N/A,,Partly Cloudy,90,2013-05-24 13:53:00
9:53 AM,68.0,54.0,61,30.26,10.0,ESE,16.1,23.0,N/A,,Clear,110,2013-05-24 14:53:00
10:53 AM,71.1,55.9,59,30.25,10.0,East,9.2,20.7,N/A,,Clear,100,2013-05-24 15:53:00
11:53 AM,73.0,57.0,57,30.24,10.0,East,16.1,20.7,N/A,,Clear,80,2013-05-24 16:53:00
12:53 PM,75.0,57.0,53,30.22,10.0,ENE,13.8,-,N/A,,Clear,70,2013-05-24 17:53:00
1:53 PM,77.0,59.0,54,30.21,10.0,East,16.1,23.0,N/A,,Clear,80,2013-05-24 18:53:00
2:53 PM,78.1,59.0,52,30.20,10.0,ESE,10.4,-,N/A,,Clear,110,2013-05-24 19:53:00
3:53 PM,80.1,60.1,50,30.17,10.0,East,9.2,17.3,N/A,,Clear,100,2013-05-24 20:53:00
4:53 PM,79.0,60.1,52,30.16,10.0,East,9.2,-,N/A,,Clear,90,2013-05-24 21:53:00
5:53 PM,79.0,60.1,52,30.14,10.0,East,11.5,-,N/A,,Clear,90,2013-05-24 22:53:00
6:53 PM,75.9,62.1,62,30.14,10.0,ENE,11.5,-,N/A,,Clear,70,2013-05-24 23:53:00
7:53 PM,73.0,60.1,64,30.14,10.0,East,9.2,-,N/A,,Clear,80,2013-05-25 00:53:00
8:53 PM,71.1,57.9,63,30.16,10.0,East,6.9,-,N/A,,Clear,90,2013-05-25 01:53:00
9:53 PM,69.1,57.0,65,30.17,10.0,East,5.8,-,N/A,,Clear,90,2013-05-25 02:53:00
10:53 PM,68.0,55.0,63,30.19,10.0,East,9.2,-,N/A,,Clear,90,2013-05-25 03:53:00
11:53 PM,66.9,54.0,63,30.20,10.0,East,4.6,-,N/A,,Clear,100,2013-05-25 04:53:00